EW1914 Weather Reports


time (UTC)temp
C
wind
direction
speed
KPH
gust
KPH
rain 1hr
cm
rain 24hr
cm
rain mn
cm
humidity
%
barometer
mb
20260509035000 17 0.0 0.0 0.00 0.00 0.00 65 1020.8
20260509033959 18 0.0 0.0 0.00 0.00 0.00 64 1020.6
20260509033000 18 0.0 0.0 0.00 0.00 0.00 63 1020.5
20260509031959 18 0.0 0.0 0.00 0.00 0.00 62 1020.4
20260509030959 18 0.0 0.0 0.00 0.00 0.00 61 1020.4
20260509030000 18 0.0 0.0 0.00 0.00 0.00 61 1020.3
20260509024959 18 0.0 0.0 0.00 0.00 0.00 59 1020.3
20260509023001 18 0.0 0.0 0.00 0.00 0.00 58 1020.0
20260509022000 19 0.0 0.0 0.00 0.00 0.00 58 1020.1
20260509020958 19 0.0 0.0 0.00 0.00 0.00 57 1020.1
20260509020000 20 0.0 0.0 0.00 0.00 0.00 56 1020.1
20260509014959 20 0.0 0.0 0.00 0.00 0.00 55 1020.0
20260509013959 20 0.0 0.0 0.00 0.00 0.00 54 1020.0
20260509013000 20 0.0 0.0 0.00 0.00 0.00 54 1020.1
20260509010012 21 0.0 0.0 0.00 0.00 0.00 51 1020.2
20260509004959 21 0.0 0.0 0.00 0.00 0.00 50 1020.1
20260509003958 21 0.0 0.0 0.00 0.00 0.00 50 1020.2
20260509003000 21 0.0 0.0 0.00 0.00 0.00 50 1020.3
20260509000000 21 0.0 0.0 0.00 0.00 0.00 52 1020.3
20260508234959 21 0.0 0.0 0.00 0.00 0.00 50 1020.5
20260508233959 21 0.0 0.0 0.00 0.00 0.00 51 1020.4
20260508233000 21 0.0 0.0 0.00 0.00 0.00 49 1020.4
20260508231959 21 0.0 0.0 0.00 0.00 0.00 48 1020.4
20260508230959 21 0.0 0.0 0.00 0.00 0.00 52 1020.4
20260508223958 20 0.0 0.0 0.00 0.00 0.00 50 1020.4
20260508223000 20 0.0 0.0 0.00 0.00 0.00 50 1020.5
20260508221958 20 0.0 0.0 0.00 0.00 0.00 53 1020.7
20260508220007 20 0.0 0.0 0.00 0.00 0.00 54 1020.7
20260508215000 19 0.0 0.0 0.00 0.00 0.00 51 1020.8
20260508213959 19 0.0 0.0 0.00 0.00 0.00 55 1020.7
20260508213002 18 0.0 0.0 0.00 0.00 0.00 54 1020.8
20260508212000 18 0.0 0.0 0.00 0.00 0.00 53 1020.9
20260508211000 18 0.0 0.0 0.00 0.00 0.00 56 1020.9
20260508205000 18 0.0 0.0 0.00 0.00 0.00 57 1020.9
20260508203000 17 0.0 0.0 0.00 0.00 0.00 57 1021.0
20260508201959 17 0.0 0.0 0.00 0.00 0.00 56 1021.1
20260508200959 17 0.0 0.0 0.00 0.00 0.00 58 1021.1
20260508200002 17 0.0 0.0 0.00 0.00 0.00 61 1021.0
20260508194959 16 0.0 0.0 0.00 0.00 0.00 59 1021.2
20260508193959 16 0.0 0.0 0.00 0.00 0.00 59 1021.2
20260508193000 16 0.0 0.0 0.00 0.00 0.00 61 1021.2
20260508191959 16 0.0 0.0 0.00 0.00 0.00 65 1021.1
20260508191000 15 0.0 0.0 0.00 0.00 0.00 62 1021.4
20260508190002 15 0.0 0.0 0.00 0.00 0.00 61 1021.5
20260508184959 15 0.0 0.0 0.00 0.00 0.00 62 1021.5
20260508183959 15 0.0 0.0 0.00 0.00 0.00 63 1021.3
20260508183001 15 0.0 0.0 0.00 0.00 0.00 65 1021.4
20260508181958 14 0.0 0.0 0.00 0.00 0.00 66 1021.3
20260508180002 14 0.0 0.0 0.00 0.00 0.00 68 1021.2
20260508173958 13 0.0 0.0 0.00 0.00 0.00 72 1021.1
20260508173000 13 0.0 0.0 0.00 0.00 0.00 73 1021.0
20260508171959 13 0.0 0.0 0.00 0.00 0.00 72 1020.9
20260508170958 13 0.0 0.0 0.00 0.00 0.00 72 1020.9
20260508165958 13 0.0 0.0 0.00 0.00 0.00 73 1020.6
20260508164958 13 0.0 0.0 0.00 0.00 0.00 74 1020.5
20260508162959 12 0.0 0.0 0.00 0.00 0.00 77 1020.4
20260508161959 12 0.0 0.0 0.00 0.00 0.00 76 1020.6
20260508160959 12 0.0 0.0 0.00 0.00 0.00 77 1020.2
20260508160002 12 0.0 0.0 0.00 0.00 0.00 77 1020.3
20260508154958 12 0.0 0.0 0.00 0.00 0.00 79 1020.2
20260508153959 12 0.0 0.0 0.00 0.00 0.00 78 1020.1
20260508153001 12 0.0 0.0 0.00 0.00 0.00 79 1020.1
20260508152000 11 0.0 0.0 0.00 0.00 0.00 80 1020.3
20260508150959 11 0.0 0.0 0.00 0.00 0.00 80 1020.3
20260508150004 11 0.0 0.0 0.00 0.00 0.00 79 1020.4
20260508144958 11 0.0 0.0 0.00 0.00 0.00 81 1020.4
20260508143958 11 0.0 0.0 0.00 0.00 0.00 81 1020.5
20260508142959 11 0.0 0.0 0.00 0.00 0.00 82 1020.5
20260508140958 11 0.0 0.0 0.00 0.00 0.00 84 1020.1
20260508140002 11 0.0 0.0 0.00 0.00 0.00 84 1019.9
20260508134958 11 0.0 0.0 0.00 0.00 0.00 84 1019.6
20260508133958 11 0.0 0.0 0.00 0.00 0.00 83 1019.6
20260508133000 11 0.0 0.0 0.00 0.00 0.00 83 1019.2
20260508131958 11 0.0 0.0 0.00 0.00 0.00 83 1019.0
20260508130959 11 0.0 0.0 0.00 0.00 0.00 82 1018.8
20260508124959 11 0.0 0.0 0.00 0.00 0.00 82 1018.4
20260508123958 11 0.0 0.0 0.00 0.00 0.00 82 1018.4
20260508122959 11 0.0 0.0 0.00 0.00 0.00 82 1018.2
20260508121958 11 0.0 0.0 0.00 0.00 0.00 82 1018.3
20260508120958 11 0.0 0.0 0.00 0.00 0.00 83 1018.0
20260508115958 11 0.0 0.0 0.00 0.00 0.00 83 1018.1
20260508114956 11 0.0 0.0 0.00 0.00 0.00 83 1017.9
20260508113956 11 0.0 0.0 0.00 0.00 0.00 82 1018.0
20260508112959 11 0.0 0.0 0.00 0.00 0.00 82 1017.7
20260508111957 11 0.0 0.0 0.00 0.00 0.00 82 1017.6
20260508110957 11 0.0 0.0 0.00 0.00 0.00 82 1017.4
20260508105958 11 0.0 0.0 0.00 0.00 0.00 81 1017.3
20260508104956 12 0.0 0.0 0.00 0.00 0.00 81 1017.2
20260508102959 12 0.0 0.0 0.00 0.00 0.00 81 1017.0
20260508100958 12 0.0 0.0 0.00 0.00 0.00 79 1017.0
20260508100001 12 0.0 0.0 0.00 0.00 0.00 79 1016.9
20260508094958 12 0.0 0.0 0.00 0.00 0.00 79 1016.7
20260508093000 12 0.0 0.0 0.00 0.00 0.00 78 1016.5
20260508091957 12 0.0 0.0 0.00 0.00 0.00 78 1016.5
20260508090959 12 0.0 0.0 0.00 0.00 0.00 77 1016.5
20260508090004 12 0.0 0.0 0.00 0.00 0.00 76 1016.4
20260508084957 12 0.0 0.0 0.00 0.00 0.00 76 1016.3
20260508083958 13 0.0 0.0 0.00 0.00 0.00 76 1016.2
20260508081959 13 0.0 0.0 0.00 0.00 0.00 75 1016.2
20260508081005 13 0.0 0.0 0.00 0.00 0.00 75 1016.1
20260508080002 13 0.0 0.0 0.00 0.00 0.00 74 1016.1
20260508073959 13 0.0 0.0 0.00 0.00 0.00 72 1016.0
20260508073001 13 0.0 0.0 0.00 0.00 0.00 72 1016.0
20260508071958 14 0.0 0.0 0.00 0.00 0.00 72 1016.0
20260508070958 14 0.0 0.0 0.00 0.00 0.00 70 1016.0
20260508070006 14 0.0 0.0 0.00 0.00 0.00 69 1015.9
20260508065000 14 0.0 0.0 0.00 0.00 0.00 68 1016.0
20260508063001 15 0.0 0.0 0.00 0.00 0.00 66 1015.9
20260508062001 15 0.0 0.0 0.00 0.00 0.00 65 1015.9
20260508061000 15 0.0 0.0 0.00 0.00 0.00 65 1015.8
20260508055002 15 0.0 0.0 0.00 0.00 0.00 65 1015.9
20260508053001 16 0.0 0.0 0.00 0.00 0.00 64 1015.9
20260508052000 16 0.0 0.0 0.00 0.00 0.00 64 1015.8
20260508050959 16 0.0 0.0 0.00 0.00 0.00 64 1015.7
20260508045000 17 0.0 0.0 0.00 0.00 0.00 64 1015.8
20260508044000 17 0.0 0.0 0.00 0.00 0.00 62 1015.8
20260508041001 18 0.0 0.0 0.00 0.00 0.00 59 1015.5
20260508040004 18 0.0 0.0 0.00 0.00 0.00 58 1015.4